Location: Hylo
(54.6785°N, 112.2142°W)
Time: 07:59:24
(UTC+00:00)

BlueWalker 3 - Visible Passes

Search period start: 05 June 2023 00:00
Search period end: 15 June 2023 00:00
Orbit: 494 x 513 km, 53.2° (Epoch: 04 June)

Date Brightness Start Highest point End Pass type
(mag) Time Alt. Az. Time Alt. Az. Time Alt. Az.
05 Jun 1.9 04:56:55 10° W 05:00:45 72° S 05:04:37 10° E visible
05 Jun 2.1 06:35:22 10° W 06:39:08 50° SSW 06:42:49 10° SE visible
05 Jun 3.4 08:14:21 10° W 08:17:03 18° SW 08:17:26 18° SSW visible
06 Jun 2.2 06:14:58 10° W 06:18:42 49° SSW 06:22:18 11° SE visible
06 Jun 3.5 07:53:58 10° W 07:56:38 18° SW 07:56:57 18° SSW visible
07 Jun 2.2 05:54:33 10° W 05:58:16 49° SSW 06:01:57 10° SE visible
07 Jun 3.5 07:33:34 10° W 07:36:11 17° SW 07:36:36 17° SSW visible
08 Jun 2.3 05:34:06 10° W 05:37:50 48° SSW 05:41:35 10° SE visible
08 Jun 3.6 07:13:10 10° W 07:15:44 17° SW 07:16:21 17° SSW visible
09 Jun 2.3 05:13:40 10° W 05:17:23 47° SSW 05:21:07 10° SE visible
09 Jun 3.7 06:52:45 10° W 06:55:16 17° SW 06:56:11 16° SSW visible
10 Jun 2.4 04:53:12 10° W 04:56:55 47° SSW 05:00:39 10° SE visible
10 Jun 3.8 06:32:19 10° W 06:34:48 16° SW 06:36:04 14° SSW visible
11 Jun 3.8 06:11:53 10° W 06:14:19 16° SW 06:15:59 13° S visible
12 Jun 3.9 05:51:26 10° W 05:53:49 16° SW 05:55:58 11° S visible
13 Jun 4.0 05:30:58 10° WSW 05:33:19 15° SW 05:35:39 10° S visible
14 Jun 4.0 05:10:31 10° WSW 05:12:48 15° SW 05:15:04 10° S visible
